CAPE
917 821 797 841 997 1005 628 221 497 728 1288 1163 1048 846 214 213 0 673 355 1891 2378 2897 2399 2206 1665 1498 1350 1484 1274 1032 1208 1209 1279 1324 1184 1003 713 639 672 657 714 684 823
704 1126 1023 967 580 1085 726 946 1049 1125 1259 1022 998 1184 454 431 259 609 748 1059 2717 2852 2794 2800 2514 2008 1790 1888 1740 1424 1083 820 1158 1515 1692 1760 1382 814 1134 1295 1032 733 766
537 876 762 887 1066 901 1084 815 802 453 135 4 0 386 731 594 752 680 872 803 1473 2474 2244 2503 2636 2840 2411 2056 1862 2073 2146 2029 1489 1177 1656 1500 1377 1363 1383 1431 1146 1002 1412
847 822 751 758 1215 634 398 535 606 123 0 0 0 0 0 160 192 610 1018 796 874 1251 1930 1987 1958 2233 2470 2109 1729 1435 1699 1778 1921 1928 1700 1339 1051 1114 1642 1813 1753 1582 1463
1083 945 935 932 1261 1045 612 551 457 0 0 0 0 0 0 0 1 1 15 19 13 907 937 1752 1879 1929 1629 1188 1724 1760 1777 1563 1705 2221 2181 1820 1715 1795 2012 2055 2036 1798 1797
1551 1151 1156 1385 956 1160 653 338 102 1 0 0 0 0 0 0 0 12 86 440 578 753 900 1103 1002 951 1743 1672 2129 1991 1782 1945 2166 2134 1768 1949 2227 2057 1998 1815 1672 1919 1895
1386 1283 809 1302 820 573 471 161 0 0 0 0 0 0 0 0 0 11 0 34 362 431 440 404 779 927 1467 1549 1565 1478 1669 1674 1747 1823 1894 1632 1361 1345 1574 1722 1723 1787 1916
1034 1263 836 977 829 916 354 0 0 0 0 0 0 0 0 0 6 0 0 0 132 293 263 299 302 659 428 459 883 1251 1346 1466 1461 1338 1266 1173 1354 1443 1392 1370 1436 1582 1720
1262 1095 922 791 571 142 180 0 0 0 0 0 0 0 0 0 3 4 0 0 4 0 0 0 129 454 104 29 0 27 117 182 155 116 101 112 159 298 595 862 1004 1083 1102
1285 1353 1149 758 542 363 11 0 0 0 0 0 0 0 0 0 0 0 0 0 0 0 0 0 0 470 13 0 0 0 0 0 0 0 0 0 0 0 0 7 120 487 754
1117 1274 948 403 591 231 9 0 0 0 0 0 0 0 0 0 0 0 0 0 0 0 0 0 0 58 0 0 0 0 0 0 0 0 0 0 0 0 0 0 0 0 0
953 1144 1112 414 257 97 1 0 0 0 0 0 0 0 0 0 0 0 0 0 0 0 0 0 0 0 0 0 0 0 0 0 0 0 0 0 0 0 0 0 0 0 0
672 946 938 662 195 0 0 0 0 0 0 0 0 0 0 0 0 0 0 0 0 0 0 0 0 0 0 0 0 1 10 0 0 0 0 0 0 0 0 0 0 0 0
608 863 577 564 34 0 0 0 0 0 0 0 0 0 0 0 0 0 0 0 0 0 0 0 0 0 0 0 0 32 0 0 0 0 0 0 0 0 0 0 0 0 0
105 615 499 626 132 38 0 0 0 0 2 0 0 0 0 0 0 0 0 0 0 0 0 0 0 0 0 0 0 10 0 0 1 0 0 0 0 0 0 5 1 0 0
362 274 519 559 337 109 22 4 0 0 0 0 0 0 0 0 0 0 0 0 0 0 0 0 0 0 0 0 0 3 0 0 0 0 0 0 0 0 3 0 3 5 1
439 226 770 750 554 201 113 24 2 3 0 0 1 0 0 0 0 0 0 0 0 0 0 0 0 0 2 7 5 26 0 0 0 0 8 10 0 0 0 1 0 0 3
828 514 517 993 765 447 156 124 11 55 90 3 0 2 0 0 0 0 0 0 0 0 0 0 0 0 0 0 0 0 0 44 0 0 0 1 0 0 0 0 0 0 0
947 738 682 921 846 673 322 184 77 40 6 73 25 1 0 0 0 0 0 0 0 0 0 0 0 0 0 0 0 0 0 0 0 0 0 0 0 0 0 0 0 0 0
1367 988 832 941 852 677 524 288 182 64 55 39 28 16 3 0 0 0 7 0 2 5 0 0 0 0 0 0 0 0 0 0 0 0 0 0 0 0 0 0 0 0 0
1921 1284 956 732 696 654 592 409 307 185 90 53 47 116 140 18 0 4 7 0 0 2 0 0 0 0 0 0 0 0 1 2 2 0 0 0 0 0 0 0 0 0 0
2155 1392 1034 779 582 772 709 430 488 380 225 144 109 82 205 213 121 69 49 15 12 8 0 0 0 0 0 0 0 0 0 0 0 0 0 0 0 0 0 0 0 0 0
2455 1524 996 874 813 850 577 320 337 459 336 312 168 65 162 222 226 207 206 4 1 0 0 0 0 0 0 0 0 0 0 0 0 0 0 0 0 0 0 0 0 0 0
2368 1909 1173 980 895 899 439 98 172 565 325 306 251 170 185 324 87 34 8 3 1 0 0 0 0 0 0 0 0 0 0 0 0 0 0 0 0 0 0 0 0 0 0
2514 2350 1467 1208 1102 990 170 19 68 512 203 201 178 219 273 161 76 0 0 0 0 0 6 9 0 1 0 3 12 0 1 0 0 0 0 0 0 0 0 0 0 0 0
2651 2111 1568 1375 1130 1054 105 0 0 3 122 248 21 212 345 320 67 0 21 21 43 19 1 0 2 0 0 0 0 0 0 0 0 0 0 0 0 0 0 0 0 0 0
CIN
-115 -116 -134 -123 -115 -144 -147 -190 -132 -112 -78 -62 -72 -105 -222 -202 0 -169 -193 -42 -40 -4 -3 -1 -1 0 -1 0 0 0 0 0 0 0 0 0 -2 -2 -3 -2 -1 -1 -1
-141 -104 -128 -107 -133 -109 -141 -105 -85 -83 -74 -98 -82 -69 -168 -184 -217 -170 -173 -125 -25 -14 -5 -2 -1 0 0 0 0 0 -1 -4 0 0 0 0 0 -1 0 0 0 -1 -2
-160 -126 -113 -88 -86 -108 -94 -109 -92 -122 -185 -19 0 -123 -101 -143 -136 -132 -150 -138 -74 -25 -16 -10 -6 -2 -1 0 0 0 0 0 0 0 0 0 0 0 0 0 0 0 0
-126 -106 -96 -101 -94 -132 -143 -113 -100 -174 -15 0 0 0 0 -161 -139 -136 -118 -133 -119 -75 -38 -17 -14 -8 -1 0 0 -6 -3 -3 0 0 0 0 0 0 0 0 0 0 0
-118 -107 -104 -97 -89 -104 -119 -112 -98 0 0 0 0 0 0 0 -50 -27 -117 -110 -87 -120 -106 -35 -21 -16 -9 -2 0 -2 -1 -3 -3 0 0 0 0 0 0 0 0 0 0
-101 -93 -101 -73 -91 -94 -122 -154 -179 -73 0 0 0 0 0 0 0 -96 -198 -104 -85 -109 -115 -60 -64 -69 -14 -4 -2 -2 -1 -1 -1 -1 -5 -2 0 0 0 0 -1 0 0
-96 -90 -104 -79 -108 -126 -137 -202 0 0 0 0 0 0 0 0 0 -122 -1 -225 -133 -148 -152 -125 -94 -108 -55 -18 -22 -16 -4 0 -1 -1 -1 -4 -8 -10 -5 -2 -2 0 0
-107 -94 -112 -89 -99 -92 -161 0 0 0 0 0 0 0 0 0 -114 0 0 0 -196 -149 -149 -134 -139 -112 -129 -117 -59 -23 -14 -6 -5 -5 -8 -15 -10 -5 -5 -7 -6 -4 -2
-119 -104 -106 -117 -154 -252 -217 0 0 0 0 0 0 0 0 0 -46 -69 0 0 -74 0 0 0 -200 -117 -195 -274 -139 -88 -129 -106 -129 -154 -165 -144 -109 -75 -27 -12 -11 -8 -10
-87 -90 -92 -132 -187 -214 -216 0 0 0 0 0 0 0 0 0 0 0 0 0 0 0 0 0 0 -128 -315 0 0 0 0 0 0 0 0 0 0 0 0 -32 -110 -23 -2
-111 -96 -133 -225 -196 -282 -234 0 0 0 0 0 0 -4 0 0 0 0 0 0 0 0 0 0 0 -248 0 0 0 0 0 0 0 0 0 0 0 0 0 0 0 0 0
-178 -142 -135 -254 -298 -359 -169 0 0 0 0 0 0 0 0 0 0 0 0 0 0 0 0 0 0 0 0 0 0 0 0 0 0 0 0 0 0 0 0 0 0 0 0
-269 -201 -199 -234 -333 0 0 0 0 0 0 0 0 0 0 0 0 0 0 0 0 0 0 0 0 0 0 0 0 -47 -60 0 0 0 0 0 0 0 0 0 0 0 0
-257 -245 -290 -268 -418 0 0 0 0 0 0 0 0 0 0 0 0 0 0 0 0 0 0 0 0 0 0 0 0 -135 0 0 0 0 0 0 0 0 0 0 0 0 0
-411 -310 -290 -270 -384 -445 0 0 0 0 -404 0 0 0 0 0 0 0 0 0 0 0 0 0 0 0 0 0 0 -139 0 0 -146 0 0 0 0 0 0 -97 -13 0 0
-341 -391 -290 -280 -339 -463 -418 -218 0 0 0 0 0 0 0 0 0 0 0 0 0 0 0 0 0 0 0 0 0 -68 0 0 0 0 0 0 0 0 -162 -10 -92 -118 -50
-336 -418 -290 -276 -316 -419 -494 -567 -394 -314 0 0 -258 0 0 0 0 0 0 0 0 0 0 0 0 0 -52 -67 -116 -74 0 0 0 0 -93 -97 0 0 0 -56 0 0 -158
-348 -360 -372 -282 -315 -368 -481 -482 -563 -448 -390 -138 0 -330 0 0 0 0 0 0 0 0 0 0 0 0 -6 0 0 0 0 -137 0 0 0 -7 0 0 0 0 0 0 0
-384 -402 -388 -336 -327 -343 -415 -443 -494 -518 -499 -434 -414 -392 0 0 0 0 0 0 0 0 0 0 0 0 0 0 0 0 0 0 0 0 0 0 0 0 0 0 0 0 0
-359 -409 -419 -356 -337 -356 -371 -407 -447 -513 -512 -512 -451 -423 -197 0 0 0 -193 -17 -214 -179 0 0 0 0 0 0 0 0 0 0 0 0 0 0 0 0 0 0 0 0 0
-260 -383 -394 -413 -397 -382 -356 -391 -417 -462 -498 -500 -460 -342 -251 -292 -1 -149 -156 -134 -4 -90 0 0 0 0 0 0 0 0 -56 -156 -196 0 0 0 0 0 0 0 0 0 0
-238 -361 -397 -423 -459 -355 -339 -442 -362 -371 -416 -424 -423 -377 -209 -196 -154 -134 -135 -117 -176 -148 -1 0 0 0 0 0 0 0 0 0 0 0 0 0 0 0 0 0 0 0 0
-205 -364 -451 -440 -423 -358 -429 -512 -450 -351 -361 -338 -324 -327 -208 -141 -124 -104 -88 -106 -196 0 0 0 0 0 0 0 0 0 0 0 0 0 0 0 0 0 0 0 0 0 0
-240 -304 -426 -423 -409 -389 -494 -673 -564 -337 -420 -371 -327 -270 -173 -119 -183 -178 -143 -179 -101 0 0 0 0 0 0 0 0 0 0 0 0 0 0 0 0 0 0 0 0 0 0
-214 -223 -352 -368 -366 -370 -681 -772 -706 -388 -410 -339 -305 -259 -169 -160 -167 0 0 0 0 0 -63 -129 0 -62 -165 -186 -146 0 -82 0 0 0 0 0 0 0 0 0 0 0 0
-206 -249 -297 -295 -321 -327 -684 0 0 -649 -455 -358 -462 -240 -143 -105 -155 0 -112 -104 -68 -135 -72 -20 -130 0 0 0 0 0 0 0 0 0 0 0 0 0 0 0 0 0 0
Wind_Speed
4 4 3 3 3 3 2 2 2 2 1 2 3 7 6 5 5 3 2 8 11 12 12 15 15 15 14 14 13 12 12 12 11 11 12 11 10 9 9 8 7 6 5
4 4 4 4 3 3 4 3 1 0 2 3 2 3 7 6 4 5 4 5 14 14 15 14 15 15 14 15 15 14 13 13 12 11 12 11 10 10 10 9 8 7 5
5 5 4 2 1 4 4 2 2 1 2 3 5 4 1 6 7 7 5 4 4 13 12 13 13 13 14 15 15 15 15 13 13 12 11 10 10 10 9 10 9 8 7
6 5 3 3 3 3 3 2 1 2 0 3 1 3 3 3 3 7 5 4 4 5 11 11 10 11 13 13 13 14 14 13 13 12 12 11 11 10 10 10 10 9 8
7 5 4 3 3 3 2 2 1 2 2 1 2 2 2 1 4 2 4 6 5 4 3 7 9 9 11 11 11 10 12 12 13 13 13 13 13 13 12 11 11 10 10
7 5 4 4 4 3 3 2 2 2 1 1 2 3 2 1 3 3 5 3 5 4 4 3 1 3 7 7 8 9 9 9 12 13 13 14 13 13 12 12 11 11 11
6 6 4 3 4 4 4 3 2 1 1 1 2 3 3 3 2 4 4 4 5 3 6 5 3 2 3 5 5 2 6 8 8 9 11 13 13 13 13 12 11 11 12
7 6 5 5 4 4 5 4 3 1 1 0 2 2 3 4 4 4 2 4 6 3 4 5 5 5 4 3 4 6 6 6 6 5 5 6 7 10 9 11 12 12 13
7 6 6 5 5 4 5 4 4 4 1 2 1 4 3 3 0 2 2 3 4 2 3 4 5 5 5 4 5 5 6 6 6 6 5 6 6 5 4 4 4 6 10
7 6 6 6 6 4 5 4 4 3 4 2 2 1 2 4 3 1 2 0 1 3 5 3 4 5 5 4 7 8 8 6 5 4 3 3 3 4 3 4 5 6 6
7 7 6 6 6 5 5 6 5 4 3 3 1 1 2 3 3 3 1 3 1 3 4 4 4 4 5 4 4 7 10 8 6 5 3 0 2 3 4 4 4 5 6
6 6 7 6 6 6 7 6 5 5 4 4 2 2 2 3 2 3 2 2 1 3 3 3 4 4 4 4 7 10 11 9 8 7 7 5 4 4 4 4 5 6 7
3 6 7 7 6 6 7 6 6 5 5 4 5 3 2 2 3 2 3 1 2 2 2 3 4 4 2 3 5 11 12 11 10 10 10 10 9 8 8 8 8 9 8
9 10 10 9 9 8 7 6 4 4 4 4 5 4 3 2 1 2 4 4 1 2 2 2 1 4 5 5 8 13 6 12 12 12 12 12 12 11 10 11 11 11 11
7 10 12 10 10 9 9 8 5 5 5 4 5 4 3 2 2 2 2 3 5 2 2 3 1 2 3 5 7 6 7 10 12 13 13 12 13 13 12 12 12 13 13
9 10 11 12 11 10 9 8 6 5 6 4 4 5 3 2 3 1 2 3 3 4 2 4 3 2 1 1 6 7 7 10 12 13 12 13 14 12 13 13 14 14 15
13 12 13 13 12 11 8 8 7 7 7 6 5 6 7 4 3 2 2 2 3 3 3 3 3 2 2 3 4 3 5 6 5 10 12 14 14 13 13 13 14 17 18
11 13 14 14 13 12 11 11 10 8 8 8 7 6 7 3 6 5 3 4 3 4 4 4 2 2 4 4 5 5 4 3 4 6 9 11 11 10 11 13 14 13 14
12 12 14 15 14 13 12 11 11 9 10 9 8 8 7 7 6 3 5 5 3 2 3 3 3 1 2 2 3 2 1 3 3 6 8 9 6 6 8 8 8 9 10
12 13 13 13 14 13 13 12 11 10 10 9 9 9 9 9 7 7 5 6 4 4 2 2 2 2 2 2 1 2 4 2 3 2 4 6 5 5 7 7 8 9 10
15 14 12 11 10 11 10 12 13 13 12 9 8 9 10 11 13 10 6 6 5 4 3 3 3 1 2 2 3 2 3 3 3 4 3 3 2 4 7 7 8 10 11
14 11 13 13 12 10 15 17 16 12 11 11 10 7 8 11 12 13 13 11 11 7 5 4 2 3 4 4 3 3 2 2 3 2 3 4 2 5 5 4 11 12 13
13 12 13 13 13 14 17 19 18 9 8 9 7 6 6 7 9 7 8 5 7 9 6 6 6 6 4 5 3 3 4 4 5 6 2 5 2 4 5 6 11 12 14
15 13 14 14 13 12 17 18 15 12 10 8 9 8 7 7 7 7 5 6 6 6 5 5 5 5 6 5 5 4 4 4 3 4 4 4 2 4 4 5 12 13 12
13 13 14 15 15 12 19 18 17 10 5 6 6 7 9 7 6 6 7 7 5 4 7 10 12 12 11 10 9 1 6 2 4 4 4 4 4 4 3 4 6 13 15
13 11 13 13 14 11 14 10 9 5 7 7 5 5 8 7 11 11 8 6 7 8 4 5 3 3 4 6 9 6 4 4 4 3 4 4 2 2 5 3 3 5 5
Wind_Direction
175 164 186 218 242 159 182 220 245 317 315 258 180 139 176 201 195 201 202 198 188 204 209 196 199 197 196 200 202 201 203 205 207 208 199 192 197 197 200 206 208 210 238
173 177 161 182 181 173 190 196 179 173 309 316 344 256 167 192 224 211 200 210 199 208 210 201 203 202 205 207 209 208 208 210 210 217 213 204 205 208 215 217 222 234 234
180 165 171 161 179 176 172 186 130 37 40 5 13 347 334 172 213 205 209 204 220 225 215 202 204 206 212 216 217 218 213 209 211 211 217 217 216 220 220 227 227 237 242
183 181 178 164 209 164 156 165 123 48 334 40 1 311 281 289 197 193 183 197 198 213 220 200 205 203 213 224 229 229 229 224 217 213 212 218 231 234 232 232 228 234 239
182 181 175 201 184 165 154 173 120 135 54 334 314 13 7 321 244 160 145 190 205 197 169 210 205 213 218 221 229 230 232 229 226 220 217 218 222 227 232 227 229 237 240
178 183 194 198 174 157 158 156 125 48 183 225 9 345 342 3 306 88 118 118 98 125 144 137 157 244 219 230 221 223 227 223 220 226 231 228 229 230 229 230 235 235 241
190 191 200 194 166 172 175 162 128 95 338 40 38 356 4 36 16 99 108 105 90 73 105 106 92 64 91 99 72 60 223 228 226 226 229 237 238 235 232 230 232 240 243
187 200 176 202 183 147 149 155 142 129 288 84 117 78 23 355 16 44 40 118 130 131 122 127 124 108 106 105 91 81 76 78 70 67 35 4 260 247 250 243 234 235 238
185 188 188 185 174 154 161 173 158 127 168 342 148 138 79 215 54 346 53 60 130 143 121 147 146 146 145 138 117 101 99 89 81 69 53 39 27 14 355 336 322 279 264
189 196 184 179 167 164 164 175 154 149 127 188 324 93 87 138 153 38 344 68 163 163 169 207 167 167 162 154 156 160 142 131 118 97 64 50 36 21 2 335 317 304 290
185 190 175 167 164 169 167 167 162 165 148 141 170 126 60 54 84 118 222 310 334 206 221 193 185 185 184 180 172 175 165 165 164 159 156 146 337 334 329 324 320 317 314
191 181 170 175 163 162 167 173 171 167 153 130 134 113 148 151 188 136 125 244 237 278 224 198 206 209 199 188 191 192 180 188 189 196 203 214 245 273 286 299 306 309 314
161 182 175 176 174 173 169 162 165 176 166 161 166 173 184 141 156 141 120 174 178 297 328 233 216 198 216 218 212 195 200 202 208 212 218 223 229 244 269 277 280 282 290
181 182 183 180 176 172 165 165 165 174 172 179 179 175 176 167 162 168 161 142 21 337 330 282 291 203 195 203 222 206 211 215 215 227 232 229 232 232 237 249 260 269 272
179 183 180 181 180 179 172 166 173 179 179 185 213 205 185 193 187 173 137 143 149 180 274 284 281 294 184 173 208 209 220 228 224 227 232 232 237 234 236 244 248 249 250
194 180 184 187 183 184 173 170 172 179 182 198 200 202 218 198 204 197 157 151 147 153 203 210 262 276 254 216 217 211 228 237 243 241 242 240 247 247 239 236 243 247 247
194 183 187 191 189 184 174 177 180 178 187 202 210 206 222 204 206 194 147 145 152 141 181 287 232 245 278 268 289 260 240 248 252 249 249 250 252 258 262 255 245 244 244
188 190 189 192 192 188 180 186 184 191 190 197 208 208 223 205 213 209 202 209 194 185 152 233 271 271 222 243 242 260 257 233 231 244 243 255 266 272 263 267 268 260 251
185 188 189 191 191 190 187 192 189 188 196 196 197 198 203 200 212 206 209 213 210 187 181 178 256 292 272 301 331 335 314 323 303 287 288 288 294 271 267 270 272 275 275
186 192 191 190 191 189 191 190 190 195 199 198 202 207 207 201 203 212 215 220 195 188 199 211 235 271 263 308 294 266 306 339 298 294 292 269 302 301 296 297 279 268 259
201 193 185 186 184 187 187 190 196 201 201 200 199 209 216 206 202 204 201 220 204 202 197 204 227 249 267 284 249 244 241 245 269 243 274 299 311 311 299 296 281 274 271
199 178 184 180 178 189 192 188 195 201 203 207 210 207 223 202 210 215 212 205 195 190 202 191 203 211 246 218 209 229 258 296 301 221 179 272 217 273 270 255 270 284 288
183 175 177 176 185 196 188 190 197 199 203 207 204 195 215 222 205 211 214 241 207 220 206 179 215 210 236 218 192 222 226 216 231 263 134 268 227 268 275 285 280 280 288
185 175 176 181 185 198 187 190 186 202 197 188 189 193 205 209 198 184 195 221 223 220 208 202 216 254 238 244 205 223 254 248 268 264 159 234 228 249 266 259 267 267 271
183 179 176 182 190 192 181 182 190 189 176 205 212 197 203 203 203 193 186 211 238 246 241 228 225 235 233 238 244 180 270 216 276 264 213 192 251 245 227 246 248 256 264
181 170 179 187 187 190 191 170 168 172 180 199 197 208 193 192 183 186 195 212 245 241 220 288 292 282 280 285 279 200 213 226 242 298 258 168 249 220 295 239 239 254 252